[[{"header":{"parameterUnit":"m.s-1","parameterCategory":1,"la1":30.2991,"la2":30.254,"lo1":-89.0895,"lo2":-89.0444,"dy":0.0017,"dx":0.0017,"nx":28,"ny":28,"refTime":"2023-08-31T03:00:00:Z","depth":0,"parameterNumber":2,"parameterNumberName":"U-component_of_WINDS"},"data":[0,0,0,0,0,0,0,0,0,0,0,0,0,0,0,0,0,0,0,0,0,0,0,0,0,0,0,0,0,0,0,0,0,0,0,0,0,0,0,0,0,0,0,0,0,0,0,0,0,0,0,0,0,0,0,0,0,0,-3.2359,-3.236,0,-3.2448,-3.2449,-3.245,-3.2458,-3.2457,-3.2456,-3.2455,-3.2543,-3.2546,-3.2549,0,0,0,0,0,0,0,0,0,0,0,0,0,-3.2193,-3.2196,-3.2359,-3.236,-3.2362,-3.2448,-3.2449,-3.245,-3.2458,-3.2457,-3.2456,-3.2455,-3.2542,-3.2546,-3.2549,0,0,0,0,0,0,0,0,0,0,0,0,0,-3.2272,-3.2197,-3.2359,-3.2376,-3.2378,-3.2448,-3.2449,-3.2451,-3.2458,-3.2457,-3.2456,-3.2454,-3.254,-3.2545,-3.255,-3.2608,0,0,-3.2565,-3.2567,0,0,0,0,0,0,0,0,-3.2267,-3.2278,-3.2372,-3.2375,-3.2378,-3.2441,-3.2423,-3.2503,-3.2459,-3.2428,-3.2455,-3.2454,-3.251,-3.2517,-3.2537,-3.2612,-3.2615,-3.2565,-3.2568,-3.257,-3.2571,0,0,0,0,0,0,0,-3.2262,-3.2274,-3.2394,-3.2374,-3.2377,-3.2378,-3.2387,-3.2438,-3.2475,-3.243,-3.2431,-3.2442,-3.2511,-3.2532,-3.2539,-3.2617,-3.2565,-3.2569,-3.2572,-3.2574,-3.2742,-3.2744,0,0,0,0,0,0,-3.2254,-3.2269,-3.2391,-3.2397,-3.2318,-3.2382,-3.2393,-3.2422,-3.2475,-3.2482,-3.2443,-3.2442,-3.2524,-3.2533,-3.2542,-3.2612,-3.257,-3.2574,-3.2577,-3.274,-3.2742,-3.2744,0,0,0,0,0,0,-3.225,-3.2264,-3.2388,-3.2334,-3.2349,-3.2386,-3.2419,-3.2424,-3.2445,-3.2484,-3.2491,-3.2458,-3.2524,-3.2535,-3.2591,-3.2615,-3.2577,-3.2581,-3.2739,-3.2741,-3.2743,-3.2752,0,0,0,0,0,0,-3.2245,-3.2263,-3.2286,-3.2334,-3.2352,-3.2437,-3.242,-3.2427,-3.2454,-3.2453,-3.25,-3.2506,-3.2523,-3.2584,-3.2596,-3.2621,-3.2585,-3.2737,-3.274,-3.2742,-3.275,-3.2755,-3.2759,0,0,0,0,0,-3.2239,-3.2285,-3.2287,-3.2302,-3.2382,-3.2438,-3.2448,-3.2468,-3.2456,-3.2479,-3.2504,-3.2505,-3.2611,-3.259,-3.2603,-3.263,-3.2735,-3.2739,-3.2742,-3.2748,-3.2754,-3.2758,0,0,0,0,0,0,-3.2238,-3.2292,-3.2295,-3.2358,-3.2393,-3.2439,-3.2469,-3.2474,-3.2513,-3.2511,-3.2532,-3.2543,-3.2598,-3.262,-3.2595,-3.2688,-3.2671,-3.2678,-3.2671,-3.2677,-3.2681,-3.2674,-3.2589,0,0,0,0,0,-3.2245,-3.2288,-3.2332,-3.2383,-3.2401,-3.2432,-3.2457,-3.2469,-3.2506,-3.2521,-3.255,-3.2586,-3.2627,-3.2653,-3.2693,-3.2754,-3.2763,-3.2778,-3.2783,-3.2786,-3.2791,-3.2823,-3.283,-3.2756,-3.2756,-3.2756,0,0,-3.226,-3.2295,-3.232,-3.2383,-3.2412,-3.2454,-3.2444,-3.2489,-3.252,-3.2528,-3.2582,-3.2605,-3.2646,-3.2704,-3.2731,-3.2724,-3.2814,-3.2791,-3.2793,-3.2796,-3.2827,-3.2834,-3.284,-3.2758,-3.2758,-3.2757,0,0,-3.2309,-3.234,-3.2385,-3.2415,-3.2459,-3.2479,-3.249,-3.2536,-3.2551,-3.2607,-3.2613,-3.2649,-3.272,-3.2748,-3.2772,-3.2831,-3.2833,-3.2843,-3.2865,-3.2896,-3.2902,-3.2907,-3.2926,-3.2933,-3.2848,-3.2848,-3.2848,0,-3.2321,-3.2386,-3.2407,-3.2452,-3.2479,-3.2489,-3.2534,-3.2561,-3.2616,-3.2634,-3.2626,-3.2714,-3.2742,-3.2806,-3.282,-3.284,-3.2851,-3.2837,-3.2899,-3.2905,-3.291,-3.2928,-3.2936,-3.2849,-3.2849,-3.2849,-3.2849,0,-3.2398,-3.2443,-3.2474,-3.2527,-3.2557,-3.2602,-3.2629,-3.2657,-3.2667,-3.2687,-3.2743,-3.2777,-3.2824,-3.284,-3.285,-3.2905,-3.2899,-3.2895,-3.2879,-3.2917,-3.2935,-3.2943,-3.285,-3.285,-3.285,-3.285,0,0,-3.2448,-3.2512,-3.2523,-3.2547,-3.2597,-3.2631,-3.2675,-3.2722,-3.2744,-3.2782,-3.2819,-3.2878,-3.2874,-3.2901,-3.2914,-3.2941,-3.2983,-3.2933,-3.2935,-3.294,-3.3045,-3.3046,-3.3054,-3.2986,-3.2987,-3.2988,-3.304,0,-3.25,-3.258,-3.2601,-3.2669,-3.2709,-3.2719,-3.2757,-3.2791,-3.2812,-3.2848,-3.2871,-3.2912,-3.2905,-3.2921,-3.2948,-3.2972,-3.3004,-3.2969,-3.3018,-3.3019,-3.3006,-3.3064,-3.3066,-3.3113,-3.3048,-3.3049,-3.305,0,-3.2572,-3.2611,-3.2683,-3.2727,-3.2744,-3.2779,-3.2822,-3.2857,-3.2896,-3.2908,-3.2938,-3.2949,-3.2994,-3.2976,-3.3038,-3.3014,-3.3035,-3.305,-3.3052,-3.3056,-3.3036,-3.3067,-3.3129,-3.3136,-3.3061,-3.306,-3.3059,0,-3.2598,-3.267,-3.2722,-3.2742,-3.2794,-3.2818,-3.2841,-3.2878,-3.2904,-3.2942,-3.2958,-3.3001,-3.3024,-3.3056,-3.3076,-3.3062,-3.3136,-3.3121,-3.3146,-3.3145,-3.316,-3.3158,-3.3224,-3.3176,-3.3176,-3.3176,-3.3176,0,-3.2654,-3.2697,-3.2734,-3.2766,-3.2814,-3.2837,-3.2883,-3.2906,-3.2939,-3.2974,-3.2986,-3.3018,-3.3044,-3.308,-3.3097,-3.3144,-3.3155,-3.3165,-3.3169,-3.3163,-3.3162,-3.3176,-3.3173,-3.3178,-3.3178,-3.3177,-3.3177,0,-3.2691,-3.2718,-3.2775,-3.282,-3.2832,-3.2865,-3.2903,-3.2934,-3.2955,-3.2999,-3.3011,-3.3044,-3.3086,-3.3111,-3.3164,-3.3175,-3.3228,-3.323,-3.3215,-3.3216,-3.3239,-3.3236,-3.3316,-3.3327,-3.3273,-3.3274,-3.3274,0,-3.2724,-3.2757,-3.2806,-3.2831,-3.2854,-3.2894,-3.2921,-3.2945,-3.2972,-3.3017,-3.3042,-3.3086,-3.3121,-3.3189,-3.3217,-3.3258,-3.326,-3.3285,-3.3266,-3.3259,-3.3258,-3.3256,-3.3258,-3.3288,-3.3288,-3.3289,-3.3289,0,-3.2779,-3.279,-3.2829,-3.2872,-3.2904,-3.2939,-3.2973,-3.2993,-3.3022,-3.3052,-3.3096,-3.3124,-3.3179,-3.3221,-3.3265,-3.3287,-3.3292,-3.3295,-3.3303,-3.3297,-3.3286,-3.329,-3.3222,-3.3293,-3.3292,-3.3292,-3.3292,-3.3292,-3.2814,-3.2843,-3.2882,-3.2924,-3.2953,-3.2985,-3.3015,-3.304,-3.3078,-3.3125,-3.3136,-3.3182,-3.3218,-3.3277,-3.33,-3.3336,-3.3331,-3.3343,-3.3345,-3.3347,-3.3347,-3.3281,-3.3344,-3.3344,-3.3344,-3.3344,-3.3344,0,-3.2867,-3.2893,-3.2931,-3.298,-3.3012,-3.3016,-3.3055,-3.3082,-3.3122,-3.3156,-3.3191,-3.3241,-3.3283,-3.3314,-3.3356,-3.3378,-3.3381,-3.3388,-3.3385,-3.339,-3.335,-3.3338,-3.3384,-3.3384,-3.3384,-3.3384,-3.3384,-3.3384,-3.2899,-3.2949,-3.2964,-3.3028,-3.3053,-3.3099,-3.312,-3.3149,-3.3176,-3.3231,-3.3266,-3.3286,-3.3319,-3.3363,-3.34,-3.3408,-3.3422,-3.3428,-3.3436,-3.3398,-3.3393,-3.3389,-3.3378,-3.3432,-3.3432,-3.3474,-3.3474,-3.3474]},{"header":{"parameterUnit":"m.s-1","parameterCategory":1,"la1":30.2991,"la2":30.254,"lo1":-89.0895,"lo2":-89.0444,"dy":0.0017,"dx":0.0017,"nx":28,"ny":28,"refTime":"2023-08-31T03:00:00:Z","depth":0,"parameterNumber":3,"parameterNumberName":"V-component_of_WINDS"},"data":[0,0,0,0,0,0,0,0,0,0,0,0,0,0,0,0,0,0,0,0,0,0,0,0,0,0,0,0,0,0,0,0,0,0,0,0,0,0,0,0,0,0,0,0,0,0,0,0,0,0,0,0,0,0,0,0,0,0,1.0052,1.005,0,0.9884,0.9882,0.988,0.9751,0.9749,0.9748,0.9747,0.957,0.9567,0.9563,0,0,0,0,0,0,0,0,0,0,0,0,0,1.0257,1.0254,1.0052,1.005,1.0048,0.9884,0.9881,0.9879,0.9751,0.9749,0.9748,0.9746,0.9571,0.9567,0.9563,0,0,0,0,0,0,0,0,0,0,0,0,0,1.0137,1.0253,1.0052,0.9964,0.9954,0.9884,0.9881,0.9879,0.9751,0.9749,0.9747,0.9746,0.9573,0.9568,0.9562,0.9565,0,0,0.9546,0.9543,0,0,0,0,0,0,0,0,1.0144,1.0129,0.9979,0.997,0.9959,0.9836,0.9889,0.9773,0.9752,0.9828,0.9747,0.9745,0.966,0.9647,0.9619,0.9557,0.9549,0.9545,0.9542,0.954,0.9538,0,0,0,0,0,0,0,1.0152,1.0136,0.9985,0.9977,0.9965,0.9931,0.9912,0.9866,0.9756,0.9821,0.9812,0.9794,0.9654,0.9625,0.9614,0.9546,0.9545,0.9541,0.9537,0.9535,0.9476,0.9478,0,0,0,0,0,0,1.0175,1.0144,0.999,0.998,1.0049,0.9929,0.9908,0.9877,0.9756,0.9736,0.9795,0.9788,0.9635,0.9621,0.9608,0.9602,0.954,0.9535,0.9532,0.9474,0.9476,0.9478,0,0,0,0,0,0,1.018,1.0163,0.9997,1.0059,1.0035,0.9927,0.9895,0.9875,0.9846,0.9737,0.9716,0.9786,0.9633,0.9615,0.9576,0.9594,0.9532,0.9527,0.9472,0.9475,0.9477,0.9593,0,0,0,0,0,0,1.0186,1.0165,1.0166,1.006,1.0033,0.9971,0.9896,0.9873,0.9837,0.9827,0.9723,0.9704,0.963,0.9585,0.9571,0.9586,0.9523,0.947,0.9473,0.9476,0.9587,0.9599,0.9609,0,0,0,0,0,1.0194,1.0205,1.0167,1.0149,1.0032,0.9972,0.9956,0.9873,0.984,0.9839,0.9768,0.9707,0.9595,0.9582,0.9565,0.9579,0.9469,0.9473,0.9476,0.9582,0.9596,0.9609,0,0,0,0,0,0,1.0314,1.0189,1.0146,1.0123,1.006,0.9951,0.9948,0.9891,0.9835,0.9827,0.9725,0.9702,0.9674,0.9622,0.9611,0.9574,0.9524,0.9524,0.961,0.9623,0.9634,0.9647,0.9519,0,0,0,0,0,1.0339,1.0302,1.0194,1.0184,1.0154,1.0057,1.0027,0.9969,0.9898,0.987,0.9797,0.973,0.9679,0.9648,0.9595,0.9578,0.9553,0.9579,0.959,0.96,0.9602,0.9588,0.9598,0.949,0.949,0.949,0,0,1.0387,1.0314,1.0297,1.0206,1.015,1.0113,1.0035,0.9999,0.997,0.9864,0.9824,0.9768,0.9685,0.9658,0.9642,0.9614,0.9626,0.9605,0.9613,0.9609,0.9593,0.9603,0.9613,0.9493,0.9492,0.9492,0,0,1.0458,1.0399,1.0384,1.033,1.0246,1.0181,1.0178,1.0077,1.0037,0.9995,0.9915,0.9877,0.9793,0.9737,0.9698,0.9747,0.9688,0.9733,0.9791,0.9779,0.9788,0.9795,0.9812,0.982,0.9735,0.9735,0.9735,0,1.0529,1.0471,1.0383,1.0352,1.0314,1.0218,1.0201,1.0152,1.0055,1.003,1.0,0.9892,0.9829,0.9787,0.98,0.9771,0.9763,0.9744,0.9794,0.98,0.9805,0.9821,0.9827,0.9741,0.974,0.974,0.9739,0,1.0563,1.0524,1.0521,1.0432,1.0393,1.037,1.0277,1.0248,1.0192,1.013,1.0088,1.001,0.994,0.9925,0.987,0.9875,0.986,0.9814,0.976,0.9823,0.9836,0.9841,0.975,0.9747,0.9746,0.9744,0,0,1.0705,1.0567,1.0568,1.0526,1.0426,1.0394,1.0365,1.0298,1.0275,1.0211,1.0183,1.0114,1.007,1.0025,0.9963,0.9953,0.9996,0.9906,0.9903,0.9926,0.9996,1.0033,1.0041,0.9956,0.9957,0.9957,1.0003,0,1.076,1.0705,1.0625,1.0596,1.0558,1.0466,1.044,1.0376,1.0317,1.0275,1.0208,1.0161,1.0107,1.008,1.0065,0.9994,1.0009,0.999,0.9929,0.9928,0.9953,1.0047,1.0086,1.0133,1.0008,1.0008,1.0009,0,1.0817,1.076,1.0728,1.0631,1.0612,1.0591,1.0523,1.0484,1.0408,1.0366,1.0317,1.0249,1.0213,1.0165,1.0112,1.0101,1.0071,1.0032,1.0032,1.0023,0.9973,1.0042,1.0146,1.0153,1.0016,1.0015,1.0015,0,1.0924,1.0839,1.0808,1.0775,1.0661,1.0649,1.06,1.0523,1.0488,1.0427,1.0403,1.0338,1.0303,1.0254,1.017,1.0143,1.0127,1.0072,1.009,1.0092,1.0091,1.0092,1.0192,1.0071,1.0071,1.0071,1.0071,0,1.0994,1.0979,1.0855,1.0837,1.0816,1.0722,1.0704,1.0646,1.0578,1.0546,1.0461,1.0432,1.0323,1.0281,1.0215,1.0181,1.0166,1.013,1.0112,1.0137,1.0142,1.0117,1.0112,1.0073,1.0073,1.0072,1.0072,0,1.1111,1.1028,1.0989,1.0885,1.0858,1.0847,1.0756,1.0734,1.067,1.063,1.0615,1.0514,1.046,1.0371,1.0291,1.0246,1.0225,1.0195,1.0251,1.0241,1.0264,1.0263,1.0351,1.0358,1.0234,1.0235,1.0236,0,1.1162,1.1148,1.1042,1.1015,1.097,1.0927,1.0891,1.0798,1.0763,1.0676,1.0664,1.0603,1.055,1.0468,1.0386,1.0324,1.0292,1.0327,1.0282,1.0308,1.0293,1.0295,1.0293,1.0338,1.034,1.0342,1.0343,0,1.1261,1.122,1.1172,1.1109,1.1069,1.1014,1.0955,1.0938,1.0831,1.0796,1.0741,1.07,1.0618,1.0559,1.0485,1.0433,1.037,1.0358,1.0358,1.0384,1.0417,1.04,1.028,1.0356,1.0355,1.0354,1.0353,1.0352,1.1345,1.1329,1.1252,1.12,1.1147,1.1094,1.1068,1.1001,1.0953,1.0881,1.0828,1.0776,1.0699,1.0594,1.0545,1.0502,1.0474,1.0475,1.0475,1.0477,1.0487,1.0424,1.0488,1.0487,1.0487,1.0486,1.0486,0,1.144,1.1386,1.134,1.1261,1.1221,1.1166,1.1098,1.1067,1.1023,1.0957,1.0907,1.0843,1.0785,1.0699,1.0633,1.0615,1.0585,1.0601,1.0602,1.0591,1.0516,1.0522,1.0627,1.0627,1.0627,1.0627,1.0627,1.0627,1.1485,1.1453,1.1404,1.1344,1.1289,1.1239,1.1204,1.1154,1.1101,1.1034,1.0986,1.0931,1.0856,1.0785,1.0729,1.0705,1.0685,1.0711,1.0678,1.0609,1.0596,1.0584,1.0589,1.0707,1.0707,1.0757,1.0757,1.0758]}]]